Showing default

KUIPER-00215, 67779

Orbit data source: Space-Track

KUIPER-00215, 67779 is a payload satellite owned by Kuiper Systems (US) in LEO that was launched on Thu, 12 Feb 2026 UTC via an ARIANE 64 launch vehicle from the French Guiana (FRGUI). Payload-class satellites include a variety of spacecraft equipped with specific instruments for various scientific and technological missions. These include communications satellites like Starlink; space stations such as the ISS; scientific satellites like the Hubble; Earth observation satellites from companies like Planet Labs, Umbra, and HawkEye 360; GPS; miniature CubeSats for education and research; and military/defense satellites.

Loading next visibility...
Identifier
67779, 2026-030R
Orbit
LEO
Country
Flag of USUS
Related business
Manufacturer
Kuiper Systems
Mission
Operational Commercial Communications
Bus & Motor
KUIPER, Unknown motor
Mass
~490 kg wet, ~490 kg dry
Launch date (UTC)
2026-02-12 (4 months ago)
Launch vehicle
ARIANE 64
Launch site
French Guiana (FRGUI)
Object type
Payload
Rocket body
Debris
Shape & HBR
Box + 2 Pan, 3.4 m
Radar Cross Section
2.326 m², Large (>1 m²)

Expand to show TLE details & history
Last TLE update: 1 day ago

TLE from 1 day ago
0 KUIPER-00215
1 67779U 26030R   26170.52068853  .00001616  00000-0  26108-3 0  9994
2 67779  51.8991  99.6652 0000503  49.7223 310.3782 14.76367765 20584
Epoch: 2026-06-19T12:29Z
TLE epoch observation values (Epoch: 2026-06-19T12:29:47.488Z)
Latitude
-0.00002°
Longitude
4.46884°
Altitude
641.33 km
Speed
7.539 km/s
True Right ascension
06h 38m 39s
True Declination
0° 00' 00"
Sunlit
Object was in daylight at epoch
Visualization orbit readout
Latitude
Unknown
Longitude
Unknown
Altitude
Unknown
Speed
Unknown
Apparent Right ascension
Unknown
Apparent Declination
Unknown
Sunlit
N/A
Visualization observer readout
Local Sidereal Time
07:19:19
Azimuth
Unknown
Elevation
Unknown
Doppler factor
Unknown
Orbital elements
Apogee altitude
641.617 km
Perigee altitude
640.91 km
Semi-major axis
7,019.4 km
Eccentricity
0.00005
Inclination
51.8991°
RAAN
99.6652°
Arg. of periapsis
49.7223°
True anomaly
310.37381°
Mean anomaly
310.3782°
Eccentric anomaly
310.376°
Mean motion
3.69057 °/min
Orbital period
97.55 mins
BSTAR
0.00026108
Loading maneuver chart data...
Computing Atmospheric mass density...
Loading historical data...
Loading historical data...
Loading historical data...
Loading historical data...
Loading historical data...
Loading historical data...
Loading historical data...

Documentation

Showing up to 5 results
|